Waarnemingen

Advertentie
Mijn weer
Menorca/Mahon, Spanje (8314): temperatuur & dauwpunt: 17.07.2018 07:00:00 - 23.07.2018 07:00:00 (CEST)Menorca/Mahon, Spanje (8314): windsnelheid: 17.07.2018 07:00:00 - 23.07.2018 07:00:00 (CEST)Menorca/Mahon, Spanje (8314): windrichting: 17.07.2018 07:00:00 - 23.07.2018 07:00:00 (CEST)Menorca/Mahon, Spanje (8314): luchtdruk: 17.07.2018 07:00:00 - 23.07.2018 07:00:00 (CEST)Menorca/Mahon, Spanje (8314): zicht: 17.07.2018 07:00:00 - 23.07.2018 07:00:00 (CEST)
Datum & Tijd tt [°C] td [°C] ff [km/u] ff [kn] dd ppp [hPa] vv [km]
23.07.2018 07:00:00 20,2 19,2 8 4 WNW 1016,4 -
23.07.2018 06:00:00 19,8 18,8 11 6 WNW 1016,0 -
23.07.2018 05:00:00 19,8 18,6 9 5 WNW 1016,0 -
23.07.2018 04:00:00 19,7 18,7 9 5 WNW 1016,0 -
23.07.2018 03:00:00 20,1 18,8 8 4 NW 1016,0 -
23.07.2018 02:00:00 19,9 18,7 9 5 NNW 1016,2 -
23.07.2018 01:00:00 20,1 18,9 9 5 N 1016,5 -
23.07.2018 00:00:00 20,4 19,1 5 3 N 1016,1 -
22.07.2018 23:00:00 20,9 19,6 5 3 N 1015,8 15
22.07.2018 22:00:00 21,4 20,1 8 4 N 1015,5 -
22.07.2018 21:00:00 22,8 20,6 15 8 N 1014,9 -
22.07.2018 20:00:00 24,8 21,7 0 0 N 1013,4 20
22.07.2018 19:00:00 22,1 21,3 16 9 ZO 1012,9 -
22.07.2018 18:00:00 21,1 19,9 34 18 NNW 1016,2 -
22.07.2018 17:00:00 30,0 16,7 11 6 O 1013,7 20
22.07.2018 16:00:00 29,4 17,2 18 10 ONO 1013,5 -
22.07.2018 15:00:00 30,2 17,1 18 10 ONO 1014,4 24
22.07.2018 14:00:00 28,3 16,7 15 8 NNO 1014,8 24
22.07.2018 13:00:00 29,3 16,1 15 8 NO 1014,8 -
22.07.2018 12:00:00 28,5 15,6 16 9 ONO 1014,8 -
22.07.2018 11:00:00 28,2 17,3 16 9 O 1014,6 24
22.07.2018 10:00:00 27,7 15,1 18 10 ONO 1014,2 -
22.07.2018 09:00:00 26,6 17,0 13 7 O 1014,4 25
22.07.2018 08:00:00 24,7 17,4 15 8 NNO 1014,8 25
22.07.2018 07:00:00 21,6 17,4 8 4 ONO 1014,0 -
22.07.2018 06:00:00 21,5 17,5 13 7 NNO 1013,7 -
22.07.2018 05:00:00 21,6 17,6 9 5 NO 1014,3 -
22.07.2018 04:00:00 21,6 17,8 11 6 NO 1014,4 -
22.07.2018 03:00:00 21,2 17,8 11 6 NNO 1014,7 -
22.07.2018 02:00:00 22,3 18,3 13 7 NNO 1014,9 -
22.07.2018 01:00:00 22,7 18,7 11 6 NO 1015,1 -
22.07.2018 00:00:00 23,2 18,9 13 7 NNO 1015,0 -
21.07.2018 23:00:00 23,5 18,8 9 5 NO 1014,9 15
21.07.2018 22:00:00 23,6 18,9 8 4 ONO 1014,4 -
21.07.2018 21:00:00 24,3 18,5 13 7 ONO 1013,7 -
21.07.2018 20:00:00 26,3 17,2 16 9 ONO 1013,2 20
21.07.2018 19:00:00 27,6 16,5 16 9 NO 1013,0 -
21.07.2018 18:00:00 28,1 16,9 18 10 NO 1013,0 -
21.07.2018 17:00:00 28,3 17,0 24 13 NNO 1013,0 20
21.07.2018 16:00:00 28,7 18,2 24 13 NO 1013,0 -
21.07.2018 15:00:00 28,2 18,6 22 12 NNO 1013,5 20
21.07.2018 14:00:00 28,2 19,0 22 12 NNO 1013,5 20
21.07.2018 13:00:00 27,7 19,7 26 14 NNO 1013,8 -
21.07.2018 12:00:00 25,7 20,5 26 14 NNO 1013,6 -
21.07.2018 11:00:00 26,5 21,0 24 13 NNO 1013,4 18
21.07.2018 10:00:00 27,8 20,5 18 10 NO 1013,0 -
21.07.2018 09:00:00 26,0 20,8 22 12 ONO 1012,4 18
21.07.2018 08:00:00 24,7 20,6 24 13 NO 1011,9 20
21.07.2018 07:00:00 24,5 20,6 34 18 NO 1011,0 -
21.07.2018 06:00:00 24,7 22,0 34 18 NNO 1010,1 -
21.07.2018 05:00:00 24,6 22,5 28 15 NNO 1010,1 -
21.07.2018 04:00:00 24,5 23,1 21 11 N 1009,8 -
21.07.2018 03:00:00 23,7 22,1 8 4 NNW 1010,2 -
21.07.2018 02:00:00 24,3 22,7 8 4 NW 1011,0 -
21.07.2018 01:00:00 25,0 23,1 8 4 NW 1011,1 -
21.07.2018 00:00:00 25,6 23,5 13 7 ZW 1011,4 -
20.07.2018 23:00:00 25,3 22,8 15 8 ZW 1011,6 22
20.07.2018 22:00:00 25,7 22,2 9 5 ZZW 1010,5 -
20.07.2018 21:00:00 26,0 21,4 5 3 ZZW 1009,6 -
20.07.2018 20:00:00 26,5 21,7 22 12 Z 1009,7 25
20.07.2018 19:00:00 27,0 21,3 24 13 ZZO 1009,7 -
20.07.2018 18:00:00 28,2 21,7 16 9 ZZO 1011,3 -
20.07.2018 17:00:00 27,8 21,1 15 8 ZZO 1011,8 25
20.07.2018 16:00:00 29,4 20,6 18 10 ZZO 1012,9 -
20.07.2018 15:00:00 31,2 18,0 21 11 Z 1013,0 25
20.07.2018 14:00:00 30,0 18,9 16 9 ZZO 1013,2 22
20.07.2018 13:00:00 30,0 21,1 18 10 Z 1014,3 -
20.07.2018 12:00:00 29,8 20,2 18 10 ZZO 1014,0 -
20.07.2018 11:00:00 29,2 20,7 16 9 Z 1014,7 25
20.07.2018 10:00:00 28,4 20,5 16 9 ZZO 1013,9 -
20.07.2018 09:00:00 27,5 21,1 15 8 Z 1014,6 25
20.07.2018 08:00:00 24,6 21,4 11 6 O 1012,8 25
20.07.2018 07:00:00 22,5 21,0 8 4 O 1013,1 -
20.07.2018 06:00:00 22,3 20,6 8 4 O 1013,1 -
20.07.2018 05:00:00 22,3 20,8 4 2 OZO 1013,6 -
20.07.2018 04:00:00 22,2 20,1 4 2 Z 1014,3 -
20.07.2018 03:00:00 22,5 20,2 8 4 Z 1014,7 -
20.07.2018 02:00:00 23,2 20,0 5 3 Z 1014,9 -
20.07.2018 01:00:00 23,5 20,0 8 4 Z 1015,3 -
20.07.2018 00:00:00 22,2 17,8 5 3 Z 1015,2 -
19.07.2018 23:00:00 23,4 18,7 5 3 Z 1015,0 25
19.07.2018 22:00:00 24,4 18,8 8 4 Z 1014,7 -
19.07.2018 21:00:00 26,7 19,1 5 3 Z 1014,2 -
19.07.2018 20:00:00 28,8 16,9 11 6 ZZW 1014,3 25
19.07.2018 19:00:00 29,9 17,4 9 5 ZZW 1013,9 -
19.07.2018 18:00:00 30,4 16,1 11 6 ZZW 1014,7 -
19.07.2018 17:00:00 30,5 13,8 13 7 ZW 1015,1 27
19.07.2018 16:00:00 30,2 15,9 16 9 ZW 1015,4 -
19.07.2018 15:00:00 31,0 13,7 11 6 ZZW 1015,7 30
19.07.2018 14:00:00 31,3 15,6 15 8 Z 1015,9 30
19.07.2018 13:00:00 30,3 16,3 11 6 ZZW 1015,9 -
19.07.2018 12:00:00 29,7 18,8 13 7 ZZW 1016,1 -
19.07.2018 11:00:00 29,5 18,3 8 4 ZW 1015,9 30
19.07.2018 10:00:00 28,7 17,6 5 3 ZZW 1016,0 -
19.07.2018 09:00:00 27,3 18,6 2 1 ZW 1015,5 30
19.07.2018 08:00:00 24,8 20,1 2 1 Z 1015,0 30
19.07.2018 07:00:00 19,0 16,7 0 0 N 1014,6 -
19.07.2018 06:00:00 18,4 16,6 0 0 N 1014,3 -
19.07.2018 05:00:00 19,2 17,3 0 0 N 1014,3 -
19.07.2018 04:00:00 21,5 18,9 8 4 NO 1014,3 -
19.07.2018 03:00:00 22,1 18,9 9 5 NO 1014,8 -
19.07.2018 02:00:00 20,2 16,6 8 4 NNO 1015,2 -
19.07.2018 01:00:00 22,0 17,8 8 4 ONO 1015,6 -
19.07.2018 00:00:00 20,9 16,9 4 2 N 1015,6 -
18.07.2018 23:00:00 22,4 17,1 2 1 NNW 1015,5 23
18.07.2018 22:00:00 23,6 17,8 0 0 N 1014,5 -
18.07.2018 21:00:00 25,6 17,8 4 2 ZZO 1013,8 -
18.07.2018 20:00:00 27,7 16,9 8 4 ZO 1014,1 23
18.07.2018 19:00:00 28,7 16,9 15 8 ZO 1014,0 -
18.07.2018 18:00:00 29,7 16,4 16 9 OZO 1014,1 -
18.07.2018 17:00:00 30,6 16,7 13 7 OZO 1015,2 23
18.07.2018 16:00:00 31,0 16,7 18 10 OZO 1015,2 -
18.07.2018 15:00:00 31,1 16,1 18 10 O 1015,4 25
18.07.2018 14:00:00 31,1 15,4 21 11 OZO 1015,4 25
18.07.2018 13:00:00 30,3 16,6 22 12 O 1015,5 -
18.07.2018 12:00:00 30,1 16,5 18 10 O 1016,0 -
18.07.2018 11:00:00 29,4 17,7 16 9 O 1016,0 25
18.07.2018 10:00:00 28,7 17,3 15 8 O 1015,9 -
18.07.2018 09:00:00 27,4 18,7 9 5 O 1016,0 25
18.07.2018 08:00:00 25,1 20,1 2 1 ZO 1016,1 25
18.07.2018 07:00:00 19,9 17,3 2 1 O 1016,0 -
18.07.2018 06:00:00 18,6 16,9 4 2 OZO 1015,8 -
18.07.2018 05:00:00 18,7 16,5 0 0 N 1015,8 -
18.07.2018 04:00:00 19,4 17,2 2 1 ZZO 1016,3 -
18.07.2018 03:00:00 19,5 16,5 4 2 Z 1016,6 -
18.07.2018 02:00:00 19,9 16,1 4 2 ZZW 1016,8 -
18.07.2018 01:00:00 21,1 17,1 4 2 Z 1016,8 -
18.07.2018 00:00:00 22,2 18,1 4 2 Z 1017,2 -
17.07.2018 23:00:00 23,2 18,1 4 2 Z 1017,4 15
17.07.2018 22:00:00 23,6 18,3 8 4 Z 1017,3 -
17.07.2018 21:00:00 25,5 18,4 9 5 Z 1016,8 -
17.07.2018 20:00:00 27,8 18,6 11 6 Z 1016,5 20
17.07.2018 19:00:00 29,2 18,3 15 8 Z 1016,3 -
17.07.2018 18:00:00 30,3 17,4 11 6 O 1016,6 -
17.07.2018 17:00:00 30,9 17,0 11 6 OZO 1016,9 25
17.07.2018 16:00:00 31,1 16,3 9 5 O 1017,3 -
17.07.2018 15:00:00 30,5 16,9 15 8 Z 1017,5 25
17.07.2018 14:00:00 31,2 14,8 16 9 NO 1017,5 25
17.07.2018 13:00:00 30,8 14,6 9 5 NNO 1017,9 -
17.07.2018 12:00:00 30,3 15,1 11 6 ONO 1017,9 -
17.07.2018 11:00:00 29,6 15,4 13 7 ONO 1017,9 25
17.07.2018 10:00:00 28,9 15,8 15 8 ONO 1017,8 -
17.07.2018 09:00:00 27,5 16,8 13 7 ONO 1017,5 25
17.07.2018 08:00:00 23,3 20,2 0 0 N 1017,7 22
17.07.2018 07:00:00 20,9 18,7 0 0 N 1017,5 -

tt = temperatuur
td = dauwpunt
ff = windsnelheid
dd = windrichting
ppp = luchtdruk
vv = zicht

Weerstations in de omgeving